DLH2606 EDDP-EDDH

Flight info

Callsign DLH2606
Flight time 1h 36m
Altitude 16000
Route PENEM1N PENEM Y233 ODLUN Z207 MAG Z92 ABGUS DCT EDDV HOLD1/0130 EDDV DCT NOLGO NOLGO3S
Aircraft A359/H-SDE2E3GHIJ3J4J5LM1ORWXY/LB1D1

Departure

Time 2026-04-24 19:42
Airport Leipzig/Halle Airport (EDDP)

Arrival

Time 2026-04-24 21:19
Airport Hamburg Helmut Schmidt Airport (EDDH)
Time Latitude Longitude Altitude Speed Heading
2026-04-24 19:05 51.41961 12.21602 443 ft 0 kts 16°
2026-04-24 19:27 51.41966 12.21604 443 ft 0 kts 16°
2026-04-24 19:27 51.41955 12.21599 443 ft 3 kts 14°
2026-04-24 19:27 51.41935 12.21592 438 ft 3 kts 13°
2026-04-24 19:28 51.41917 12.21585 427 ft 3 kts 17°
2026-04-24 19:28 51.41903 12.21577 427 ft 3 kts 45°
2026-04-24 19:28 51.41895 12.21561 427 ft 3 kts 78°
2026-04-24 19:28 51.41893 12.21532 429 ft 3 kts 97°
2026-04-24 19:29 51.41898 12.21494 427 ft 0 kts 105°
2026-04-24 19:29 51.41899 12.21492 427 ft 0 kts 105°
2026-04-24 19:31 51.41898 12.21493 427 ft 1 kts 105°
2026-04-24 19:31 51.41895 12.21514 428 ft 3 kts 105°
2026-04-24 19:31 51.41886 12.21563 427 ft 7 kts 105°
2026-04-24 19:32 51.41869 12.21665 437 ft 12 kts 105°
2026-04-24 19:32 51.41841 12.21827 439 ft 17 kts 106°
2026-04-24 19:32 51.41807 12.22023 426 ft 19 kts 105°
2026-04-24 19:32 51.41771 12.22239 442 ft 21 kts 105°
2026-04-24 19:33 51.41731 12.22470 432 ft 19 kts 105°
2026-04-24 19:33 51.41698 12.22660 453 ft 17 kts 105°
2026-04-24 19:33 51.41669 12.22829 459 ft 15 kts 105°
2026-04-24 19:33 51.41643 12.22981 464 ft 13 kts 105°
2026-04-24 19:34 51.41619 12.23119 469 ft 12 kts 105°
2026-04-24 19:34 51.41600 12.23254 471 ft 14 kts 96°
2026-04-24 19:34 51.41605 12.23431 473 ft 18 kts 85°
2026-04-24 19:34 51.41616 12.23646 475 ft 20 kts 85°
2026-04-24 19:35 51.41626 12.23884 479 ft 23 kts 86°
2026-04-24 19:35 51.41638 12.24143 478 ft 23 kts 86°
2026-04-24 19:35 51.41650 12.24402 475 ft 24 kts 85°
2026-04-24 19:35 51.41660 12.24613 483 ft 14 kts 86°
2026-04-24 19:36 51.41677 12.24757 479 ft 14 kts 53°
2026-04-24 19:36 51.41764 12.24816 481 ft 13 kts 11°
2026-04-24 19:36 51.41853 12.24848 485 ft 14 kts 13°
2026-04-24 19:36 51.41952 12.24885 496 ft 18 kts 13°
2026-04-24 19:37 51.42102 12.24943 486 ft 26 kts 13°
2026-04-24 19:37 51.42301 12.25020 487 ft 32 kts 14°
2026-04-24 19:37 51.42533 12.25110 473 ft 37 kts 13°
2026-04-24 19:37 51.42706 12.25177 467 ft 21 kts 12°
2026-04-24 19:38 51.42858 12.25236 459 ft 22 kts 13°
2026-04-24 19:38 51.42957 12.25277 456 ft 11 kts 20°
2026-04-24 19:38 51.42983 12.25360 456 ft 7 kts 94°
2026-04-24 19:38 51.42989 12.25444 457 ft 9 kts 83°
2026-04-24 19:39 51.42998 12.25577 457 ft 15 kts 83°
2026-04-24 19:39 51.43010 12.25778 457 ft 20 kts 85°
2026-04-24 19:39 51.43019 12.25989 459 ft 21 kts 85°
2026-04-24 19:39 51.43031 12.26252 459 ft 26 kts 86°
2026-04-24 19:40 51.43043 12.26501 461 ft 20 kts 87°
2026-04-24 19:40 51.43054 12.26726 462 ft 22 kts 85°
2026-04-24 19:40 51.43127 12.26916 465 ft 14 kts 14°
2026-04-24 19:40 51.43233 12.26889 465 ft 18 kts 329°
2026-04-24 19:41 51.43314 12.26758 461 ft 20 kts 309°
2026-04-24 19:41 51.43361 12.26603 460 ft 1 kts 268°
2026-04-24 19:41 51.43361 12.26584 460 ft 10 kts 267°
2026-04-24 19:41 51.43336 12.26098 455 ft 80 kts 265°
2026-04-24 19:42 51.43279 12.24866 453 ft 140 kts 265°
2026-04-24 19:42 51.43203 12.23125 832 ft 159 kts 268°
2026-04-24 19:42 51.43481 12.21498 1666 ft 150 kts 311°
2026-04-24 19:42 51.44403 12.20562 2055 ft 168 kts 334°
2026-04-24 19:43 51.45467 12.19597 2386 ft 184 kts 322°
2026-04-24 19:43 51.46492 12.18198 2637 ft 205 kts 316°
2026-04-24 19:43 51.47586 12.16560 3033 ft 220 kts 315°
2026-04-24 19:43 51.48710 12.14900 3823 ft 220 kts 316°
2026-04-24 19:44 51.49835 12.13227 4560 ft 221 kts 316°
2026-04-24 19:44 51.50892 12.11353 5015 ft 235 kts 308°
2026-04-24 19:44 51.51843 12.09145 5494 ft 246 kts 304°
2026-04-24 19:44 51.52744 12.06768 6110 ft 251 kts 302°
2026-04-24 19:45 51.53611 12.04295 6676 ft 257 kts 301°
2026-04-24 19:45 51.54467 12.01756 7027 ft 260 kts 301°
2026-04-24 19:45 51.55326 11.99172 7607 ft 263 kts 301°
2026-04-24 19:45 51.56185 11.96584 8296 ft 263 kts 301°
2026-04-24 19:46 51.57037 11.94005 8947 ft 265 kts 301°
2026-04-24 19:46 51.57909 11.91366 9630 ft 268 kts 301°
2026-04-24 19:46 51.58797 11.88683 10271 ft 270 kts 301°
2026-04-24 19:46 51.59689 11.85994 10590 ft 284 kts 301°
2026-04-24 19:47 51.60645 11.83133 10870 ft 298 kts 301°
2026-04-24 19:47 51.61656 11.80135 11166 ft 311 kts 301°
2026-04-24 19:47 51.62708 11.77036 11476 ft 321 kts 301°
2026-04-24 19:47 51.63795 11.73868 11940 ft 326 kts 301°
2026-04-24 19:48 51.64901 11.70649 12444 ft 330 kts 301°
2026-04-24 19:48 51.66013 11.67394 12972 ft 333 kts 300°
2026-04-24 19:48 51.68252 11.60793 13992 ft 339 kts 300°
2026-04-24 19:49 51.70516 11.54064 14951 ft 343 kts 299°
2026-04-24 19:49 51.72791 11.47273 15920 ft 346 kts 298°
2026-04-24 19:50 51.76082 11.37411 16125 ft 310 kts 298°
2026-04-24 19:50 51.77086 11.34396 16125 ft 303 kts 298°
2026-04-24 19:51 51.79080 11.28402 16129 ft 303 kts 298°
2026-04-24 19:51 51.80076 11.25405 16129 ft 303 kts 298°
2026-04-24 19:52 51.82068 11.19396 16128 ft 303 kts 298°
2026-04-24 19:52 51.83064 11.16388 16131 ft 303 kts 298°
2026-04-24 19:52 51.84061 11.13378 16133 ft 304 kts 298°
2026-04-24 19:52 51.85152 11.10469 16131 ft 304 kts 304°
2026-04-24 19:53 51.86478 11.07806 16132 ft 304 kts 313°
2026-04-24 19:53 51.88146 11.05708 16134 ft 306 kts 329°
2026-04-24 19:53 51.92226 11.03658 16138 ft 311 kts 347°
2026-04-24 19:54 51.94371 11.03152 16137 ft 311 kts 349°
2026-04-24 19:54 51.96527 11.02778 16139 ft 312 kts 351°
2026-04-24 19:54 51.97955 11.02555 16139 ft 312 kts 351°
2026-04-24 19:54 51.98148 11.02525 16140 ft 312 kts 351°
2026-04-24 19:55 51.99606 11.02295 16138 ft 311 kts 351°
2026-04-24 19:55 52.02456 11.01812 16138 ft 311 kts 350°
2026-04-24 19:55 52.04612 11.01411 16138 ft 311 kts 350°
2026-04-24 19:55 52.06755 11.00991 16142 ft 311 kts 349°
2026-04-24 19:56 52.08932 11.00549 16144 ft 311 kts 349°
2026-04-24 19:56 52.11030 10.99855 16048 ft 305 kts 337°
2026-04-24 19:56 52.12818 10.98140 15425 ft 307 kts 317°
2026-04-24 19:56 52.14223 10.95447 14662 ft 317 kts 306°
2026-04-24 19:57 52.15472 10.92438 14014 ft 323 kts 304°
2026-04-24 19:57 52.16702 10.89371 13458 ft 324 kts 304°
2026-04-24 19:57 52.17922 10.86305 12963 ft 322 kts 304°
2026-04-24 19:57 52.19127 10.83252 12479 ft 319 kts 304°
2026-04-24 19:58 52.20321 10.80205 11991 ft 317 kts 304°
2026-04-24 19:58 52.21496 10.77182 11517 ft 315 kts 304°
2026-04-24 19:58 52.22658 10.74170 11091 ft 313 kts 304°
2026-04-24 19:58 52.23801 10.71183 10722 ft 308 kts 304°
2026-04-24 19:59 52.24913 10.68249 10504 ft 298 kts 304°
2026-04-24 19:59 52.25978 10.65416 10301 ft 288 kts 304°
2026-04-24 19:59 52.27003 10.62677 10127 ft 278 kts 304°
2026-04-24 19:59 52.27994 10.60008 9831 ft 273 kts 304°
2026-04-24 20:00 52.28970 10.57372 9425 ft 271 kts 304°
2026-04-24 20:00 52.29940 10.54746 9025 ft 269 kts 304°
2026-04-24 20:00 52.30899 10.52142 8623 ft 267 kts 304°
2026-04-24 20:00 52.31857 10.49537 8222 ft 266 kts 304°
2026-04-24 20:01 52.32807 10.46949 7835 ft 265 kts 304°
2026-04-24 20:01 52.33756 10.44363 7434 ft 265 kts 304°
2026-04-24 20:01 52.34698 10.41793 7196 ft 262 kts 304°
2026-04-24 20:01 52.35633 10.39239 7159 ft 263 kts 304°
2026-04-24 20:02 52.36271 10.37501 7123 ft 263 kts 304°
2026-04-24 20:02 52.37542 10.34050 6586 ft 268 kts 304°
2026-04-24 20:02 52.38496 10.31465 6296 ft 263 kts 304°
2026-04-24 20:02 52.39433 10.28923 5948 ft 260 kts 304°
2026-04-24 20:03 52.40361 10.26405 5571 ft 257 kts 304°
2026-04-24 20:03 52.41281 10.23902 5210 ft 256 kts 304°
2026-04-24 20:03 52.42191 10.21414 4855 ft 253 kts 304°
2026-04-24 20:03 52.43091 10.18948 4475 ft 252 kts 304°
2026-04-24 20:04 52.43964 10.16538 4272 ft 241 kts 304°
2026-04-24 20:04 52.44793 10.14194 4096 ft 233 kts 302°
2026-04-24 20:04 52.45337 10.11727 3968 ft 227 kts 288°
2026-04-24 20:04 52.45557 10.09229 3945 ft 215 kts 281°
2026-04-24 20:05 52.45643 10.07005 3947 ft 202 kts 279°
2026-04-24 20:05 52.45690 10.05454 3962 ft 198 kts 279°
2026-04-24 20:05 52.45750 10.03193 3966 ft 199 kts 279°
2026-04-24 20:05 52.45814 10.00926 3928 ft 198 kts 279°
2026-04-24 20:06 52.45887 9.98712 3741 ft 191 kts 280°
2026-04-24 20:06 52.45956 9.96558 3491 ft 188 kts 279°
2026-04-24 20:06 52.46014 9.94426 3207 ft 186 kts 279°
2026-04-24 20:06 52.46074 9.92327 2936 ft 183 kts 279°
2026-04-24 20:07 52.46114 9.90930 2797 ft 181 kts 279°
2026-04-24 20:07 52.46198 9.88244 2465 ft 175 kts 280°
2026-04-24 20:07 52.46268 9.86274 2239 ft 171 kts 278°
2026-04-24 20:07 52.46292 9.84384 1968 ft 161 kts 275°
2026-04-24 20:08 52.46324 9.82634 1728 ft 148 kts 274°
2026-04-24 20:08 52.46368 9.81006 1527 ft 137 kts 276°
2026-04-24 20:08 52.46435 9.79471 1340 ft 135 kts 277°
2026-04-24 20:08 52.46469 9.77920 1097 ft 136 kts 275°
2026-04-24 20:09 52.46515 9.76371 936 ft 136 kts 276°
2026-04-24 20:09 52.46559 9.74818 761 ft 138 kts 275°
2026-04-24 20:09 52.46603 9.73271 642 ft 136 kts 275°
2026-04-24 20:09 52.46649 9.71728 431 ft 136 kts 275°
2026-04-24 20:10 52.46684 9.70187 280 ft 132 kts 275°
2026-04-24 20:10 52.46729 9.68712 263 ft 131 kts 274°
2026-04-24 20:10 52.46749 9.67040 581 ft 165 kts 271°
2026-04-24 20:10 52.46760 9.64958 1077 ft 200 kts 272°
2026-04-24 20:11 52.46764 9.62592 1717 ft 209 kts 272°
2026-04-24 20:11 52.46753 9.60149 2252 ft 223 kts 272°
2026-04-24 20:11 52.46719 9.57512 2682 ft 240 kts 272°
2026-04-24 20:11 52.46667 9.55008 3177 ft 249 kts 272°
2026-04-24 20:12 52.46611 9.52312 3657 ft 256 kts 275°
2026-04-24 20:12 52.46935 9.49477 3919 ft 251 kts 297°
2026-04-24 20:12 52.47968 9.47257 3970 ft 244 kts 324°
2026-04-24 20:12 52.49488 9.46149 3965 ft 242 kts 351°
2026-04-24 20:13 52.51153 9.46403 3971 ft 245 kts 17°
2026-04-24 20:13 52.52570 9.47981 3967 ft 253 kts 44°
2026-04-24 20:13 52.53423 9.50542 3972 ft 261 kts 67°
2026-04-24 20:13 52.53863 9.53446 3968 ft 264 kts 73°
2026-04-24 20:14 52.54227 9.56417 3993 ft 265 kts 73°
2026-04-24 20:14 52.54584 9.59383 3996 ft 265 kts 73°
2026-04-24 20:14 52.54938 9.62352 3996 ft 265 kts 73°
2026-04-24 20:14 52.55290 9.65322 3985 ft 265 kts 73°
2026-04-24 20:15 52.55564 9.68322 3999 ft 267 kts 80°
2026-04-24 20:15 52.55648 9.71384 3986 ft 269 kts 83°
2026-04-24 20:15 52.55687 9.74466 3995 ft 269 kts 83°
2026-04-24 20:15 52.55717 9.77527 3996 ft 268 kts 83°
2026-04-24 20:16 52.55745 9.80595 3986 ft 269 kts 84°
2026-04-24 20:16 52.55776 9.83668 3963 ft 269 kts 83°
2026-04-24 20:16 52.55808 9.86745 3959 ft 269 kts 84°
2026-04-24 20:16 52.55837 9.89814 3966 ft 269 kts 83°
2026-04-24 20:17 52.55863 9.92877 3963 ft 268 kts 84°
2026-04-24 20:17 52.55920 9.99014 3962 ft 269 kts 83°
2026-04-24 20:17 52.55939 10.02087 3970 ft 270 kts 85°
2026-04-24 20:18 52.55810 10.04122 3962 ft 275 kts 98°
2026-04-24 20:18 52.54567 10.07873 3530 ft 292 kts 131°
2026-04-24 20:18 52.52875 10.09734 3097 ft 295 kts 158°
2026-04-24 20:18 52.50908 10.10323 2980 ft 282 kts 179°
2026-04-24 20:19 52.48968 10.10291 2965 ft 275 kts 183°
2026-04-24 20:19 52.47132 10.10180 2974 ft 262 kts 184°
2026-04-24 20:19 52.45301 10.10049 2972 ft 260 kts 185°
2026-04-24 20:19 52.43566 10.09364 2965 ft 256 kts 210°
2026-04-24 20:20 52.42244 10.07546 2964 ft 244 kts 239°
2026-04-24 20:20 52.41661 10.05158 2963 ft 216 kts 270°
2026-04-24 20:20 52.41811 10.02880 2972 ft 192 kts 290°
2026-04-24 20:20 52.42194 10.00845 2980 ft 185 kts 293°
2026-04-24 20:21 52.42586 9.98924 2989 ft 169 kts 294°
2026-04-24 20:21 52.42940 9.97140 3012 ft 164 kts 294°
2026-04-24 20:21 52.43290 9.95366 2982 ft 159 kts 294°
2026-04-24 20:21 52.43606 9.93720 2994 ft 144 kts 294°
2026-04-24 20:22 52.43885 9.92188 2917 ft 141 kts 294°
2026-04-24 20:22 52.44164 9.90641 2705 ft 140 kts 293°
2026-04-24 20:22 52.44445 9.89131 2510 ft 139 kts 294°
2026-04-24 20:22 52.44739 9.87638 2317 ft 137 kts 290°
2026-04-24 20:23 52.44896 9.86112 2091 ft 134 kts 280°
2026-04-24 20:23 52.44938 9.84587 1830 ft 134 kts 275°
2026-04-24 20:23 52.44969 9.83080 1632 ft 129 kts 277°
2026-04-24 20:23 52.45036 9.81647 1491 ft 125 kts 278°
2026-04-24 20:24 52.45116 9.80231 1338 ft 126 kts 278°
2026-04-24 20:24 52.45181 9.78788 1164 ft 127 kts 276°
2026-04-24 20:24 52.45213 9.77340 1001 ft 129 kts 275°
2026-04-24 20:24 52.45264 9.75861 822 ft 130 kts 275°
2026-04-24 20:25 52.45311 9.74380 671 ft 132 kts 275°
2026-04-24 20:25 52.45353 9.72872 432 ft 132 kts 274°
2026-04-24 20:25 52.45396 9.71368 269 ft 133 kts 274°
2026-04-24 20:25 52.45437 9.69904 194 ft 120 kts 272°
2026-04-24 20:26 52.45476 9.68303 512 ft 159 kts 272°
2026-04-24 20:26 52.45505 9.66395 1521 ft 172 kts 273°
2026-04-24 20:26 52.45516 9.64601 2639 ft 149 kts 275°
2026-04-24 20:26 52.45469 9.62936 3248 ft 145 kts 274°
2026-04-24 20:27 52.45385 9.61208 3597 ft 155 kts 273°
2026-04-24 20:27 52.45460 9.59434 3939 ft 160 kts 296°
2026-04-24 20:27 52.46211 9.58040 4024 ft 178 kts 332°
2026-04-24 20:27 52.47523 9.57668 4006 ft 212 kts
2026-04-24 20:28 52.48951 9.58673 4001 ft 238 kts 34°
2026-04-24 20:28 52.49975 9.60866 3998 ft 250 kts 61°
2026-04-24 20:28 52.50481 9.63614 3987 ft 254 kts 72°
2026-04-24 20:28 52.50839 9.66461 4000 ft 255 kts 73°
2026-04-24 20:29 52.51063 9.68345 4003 ft 255 kts 73°
2026-04-24 20:29 52.51513 9.72186 4002 ft 257 kts 73°
2026-04-24 20:29 52.51861 9.75125 3989 ft 265 kts 73°
2026-04-24 20:29 52.52212 9.78083 4002 ft 265 kts 73°
2026-04-24 20:30 52.52516 9.81082 3997 ft 267 kts 78°
2026-04-24 20:30 52.52616 9.84050 3875 ft 260 kts 83°
2026-04-24 20:30 52.52646 9.87007 3694 ft 250 kts 83°
2026-04-24 20:30 52.52661 9.89803 3534 ft 242 kts 83°
2026-04-24 20:31 52.52666 9.92508 3309 ft 237 kts 84°
2026-04-24 20:31 52.52667 9.95206 3039 ft 234 kts 84°
2026-04-24 20:31 52.52669 9.97896 2966 ft 233 kts 84°
2026-04-24 20:31 52.52670 10.00562 2968 ft 234 kts 84°
2026-04-24 20:32 52.52449 10.03224 2959 ft 242 kts 105°
2026-04-24 20:32 52.51517 10.05516 2966 ft 250 kts 135°
2026-04-24 20:32 52.49997 10.06873 2963 ft 252 kts 165°
2026-04-24 20:32 52.48263 10.07130 2963 ft 252 kts 186°
2026-04-24 20:33 52.46571 10.06497 2965 ft 249 kts 201°
2026-04-24 20:33 52.44945 10.05536 2970 ft 248 kts 204°
2026-04-24 20:33 52.43442 10.04225 2956 ft 242 kts 222°
2026-04-24 20:33 52.42444 10.02120 2961 ft 230 kts 253°
2026-04-24 20:34 52.42215 9.99613 2962 ft 220 kts 281°
2026-04-24 20:34 52.42678 9.97287 2974 ft 213 kts 300°
2026-04-24 20:34 52.43385 9.95162 2925 ft 211 kts 303°
2026-04-24 20:34 52.44127 9.93064 2628 ft 210 kts 304°
2026-04-24 20:35 52.44853 9.90988 2305 ft 211 kts 298°
2026-04-24 20:35 52.45113 9.88669 2036 ft 210 kts 272°
2026-04-24 20:35 52.45038 9.86274 1988 ft 209 kts 270°
2026-04-24 20:35 52.45008 9.83905 1799 ft 210 kts 273°
2026-04-24 20:36 52.45069 9.81595 1501 ft 192 kts 275°
2026-04-24 20:36 52.45153 9.79522 1265 ft 168 kts 276°
2026-04-24 20:36 52.45218 9.77738 1041 ft 155 kts 275°
2026-04-24 20:36 52.45259 9.76018 810 ft 146 kts 274°
2026-04-24 20:37 52.45302 9.74441 642 ft 132 kts 276°
2026-04-24 20:37 52.45346 9.72965 460 ft 128 kts 274°
2026-04-24 20:37 52.45376 9.71499 358 ft 129 kts 274°
2026-04-24 20:37 52.45413 9.69903 1058 ft 148 kts 274°
2026-04-24 20:38 52.45442 9.68157 1793 ft 159 kts 274°
2026-04-24 20:38 52.45433 9.66234 1972 ft 178 kts 272°
2026-04-24 20:38 52.45403 9.64196 1993 ft 173 kts 272°
2026-04-24 20:38 52.45360 9.62359 2337 ft 152 kts 272°
2026-04-24 20:39 52.45295 9.60606 2643 ft 158 kts 272°
2026-04-24 20:39 52.45044 9.58769 2914 ft 176 kts 250°
2026-04-24 20:39 52.44100 9.57259 2986 ft 213 kts 213°
2026-04-24 20:39 52.42545 9.56561 2941 ft 256 kts 189°
2026-04-24 20:40 52.40653 9.56337 2937 ft 278 kts 185°
2026-04-24 20:40 52.38707 9.56201 2975 ft 281 kts 183°
2026-04-24 20:40 52.36774 9.56550 2988 ft 281 kts 162°
2026-04-24 20:40 52.35102 9.58116 2992 ft 277 kts 135°
2026-04-24 20:41 52.34018 9.60637 2992 ft 271 kts 109°
2026-04-24 20:41 52.33547 9.63594 2995 ft 267 kts 96°
2026-04-24 20:41 52.33268 9.66593 2990 ft 267 kts 94°
2026-04-24 20:41 52.33012 9.69610 2991 ft 268 kts 94°
2026-04-24 20:42 52.32756 9.72626 2990 ft 268 kts 93°
2026-04-24 20:42 52.32596 9.75653 2985 ft 265 kts 84°
2026-04-24 20:42 52.32819 9.78601 2989 ft 261 kts 75°
2026-04-24 20:42 52.33173 9.81520 2990 ft 261 kts 74°
2026-04-24 20:43 52.33540 9.84417 2990 ft 261 kts 74°
2026-04-24 20:43 52.33909 9.87323 2989 ft 261 kts 73°
2026-04-24 20:43 52.34269 9.90221 2983 ft 261 kts 73°
2026-04-24 20:43 52.34626 9.93130 2985 ft 261 kts 73°
2026-04-24 20:44 52.34983 9.96050 2987 ft 262 kts 73°
2026-04-24 20:44 52.35338 9.98961 2979 ft 261 kts 73°
2026-04-24 20:44 52.35689 10.01872 2981 ft 261 kts 73°
2026-04-24 20:44 52.36040 10.04783 2967 ft 261 kts 73°
2026-04-24 20:45 52.36397 10.07697 2966 ft 261 kts 73°
2026-04-24 20:45 52.36774 10.10610 2963 ft 260 kts 71°
2026-04-24 20:45 52.37533 10.13193 2965 ft 252 kts 46°
2026-04-24 20:45 52.38897 10.14875 2966 ft 243 kts 19°
2026-04-24 20:46 52.40535 10.15268 2967 ft 238 kts 352°
2026-04-24 20:46 52.42098 10.14426 2957 ft 238 kts 330°
2026-04-24 20:46 52.43291 10.12551 2966 ft 239 kts 309°
2026-04-24 20:46 52.44167 10.10317 2972 ft 227 kts 305°
2026-04-24 20:47 52.44956 10.08108 2974 ft 224 kts 304°
2026-04-24 20:47 52.45714 10.05965 2970 ft 224 kts 304°
2026-04-24 20:47 52.46423 10.03683 2961 ft 228 kts 293°
2026-04-24 20:47 52.46521 10.01051 2966 ft 240 kts 264°
2026-04-24 20:48 52.45886 9.98456 2960 ft 251 kts 247°
2026-04-24 20:48 52.45030 9.96058 2962 ft 235 kts 244°
2026-04-24 20:48 52.44512 9.93704 2959 ft 206 kts 273°
2026-04-24 20:48 52.44638 9.91549 2911 ft 190 kts 285°
2026-04-24 20:49 52.44839 9.89440 2689 ft 185 kts 284°
2026-04-24 20:49 52.44969 9.87341 2298 ft 187 kts 279°
2026-04-24 20:49 52.45008 9.85269 1992 ft 175 kts 275°
2026-04-24 20:49 52.45054 9.83382 1778 ft 162 kts 277°
2026-04-24 20:50 52.45114 9.81629 1548 ft 148 kts 276°
2026-04-24 20:50 52.45144 9.80540 1402 ft 140 kts 275°
2026-04-24 20:50 52.45175 9.79007 1219 ft 129 kts 273°
2026-04-24 20:50 52.45199 9.77569 991 ft 126 kts 276°
2026-04-24 20:51 52.45279 9.75663 745 ft 127 kts 276°
2026-04-24 20:51 52.45318 9.74194 585 ft 130 kts 274°
2026-04-24 20:51 52.45354 9.72714 406 ft 130 kts 274°
2026-04-24 20:51 52.45397 9.71236 266 ft 129 kts 272°
2026-04-24 20:52 52.45436 9.69839 195 ft 114 kts 274°
2026-04-24 20:52 52.45463 9.68918 226 ft 138 kts 273°
2026-04-24 20:52 52.45515 9.67203 1025 ft 153 kts 274°
2026-04-24 20:52 52.45556 9.65417 1830 ft 164 kts 274°
2026-04-24 20:53 52.45587 9.63417 2140 ft 187 kts 274°
2026-04-24 20:53 52.45604 9.61174 2466 ft 207 kts 274°
2026-04-24 20:53 52.45606 9.58659 2736 ft 232 kts 274°
2026-04-24 20:53 52.45598 9.55941 3244 ft 244 kts 274°
2026-04-24 20:54 52.45583 9.53126 3718 ft 255 kts 274°
2026-04-24 20:54 52.45740 9.50224 4028 ft 255 kts 287°
2026-04-24 20:54 52.46448 9.47624 4706 ft 249 kts 308°
2026-04-24 20:54 52.47700 9.45710 5424 ft 247 kts 324°
2026-04-24 20:55 52.49182 9.44248 6063 ft 251 kts 335°
2026-04-24 20:55 52.50910 9.43538 6705 ft 258 kts 356°
2026-04-24 20:55 52.52695 9.43943 7345 ft 263 kts 12°
2026-04-24 20:55 52.54423 9.44919 7873 ft 268 kts 19°
2026-04-24 20:56 52.56119 9.46241 8123 ft 271 kts 24°
2026-04-24 20:56 52.57781 9.47736 8169 ft 272 kts 25°
2026-04-24 20:56 52.59453 9.49194 8166 ft 272 kts 24°
2026-04-24 20:56 52.61160 9.50620 8149 ft 272 kts 23°
2026-04-24 20:57 52.62832 9.51980 8165 ft 272 kts 22°
2026-04-24 20:57 52.64558 9.53365 8156 ft 272 kts 22°
2026-04-24 20:57 52.66236 9.54701 8152 ft 272 kts 22°
2026-04-24 20:57 52.67952 9.55987 8178 ft 271 kts 20°
2026-04-24 20:58 52.69688 9.57211 8162 ft 271 kts 20°
2026-04-24 20:58 52.71422 9.58430 8163 ft 271 kts 19°
2026-04-24 20:58 52.73160 9.59642 8176 ft 271 kts 19°
2026-04-24 20:58 52.74899 9.60851 8174 ft 271 kts 19°
2026-04-24 20:59 52.76636 9.62058 8157 ft 271 kts 19°
2026-04-24 20:59 52.78381 9.63270 8157 ft 271 kts 19°
2026-04-24 20:59 52.80113 9.64472 8151 ft 271 kts 19°
2026-04-24 20:59 52.81853 9.65681 8153 ft 271 kts 19°
2026-04-24 21:00 52.83593 9.66891 8150 ft 271 kts 19°
2026-04-24 21:00 52.85330 9.68099 8152 ft 271 kts 19°
2026-04-24 21:00 52.87069 9.69309 8152 ft 271 kts 19°
2026-04-24 21:00 52.88799 9.70515 8149 ft 271 kts 19°
2026-04-24 21:01 52.90539 9.71729 8152 ft 271 kts 19°
2026-04-24 21:01 52.92280 9.72942 8153 ft 271 kts 19°
2026-04-24 21:01 52.94012 9.74152 8153 ft 271 kts 19°
2026-04-24 21:01 52.95748 9.75365 8151 ft 271 kts 19°
2026-04-24 21:02 52.97486 9.76582 8152 ft 271 kts 19°
2026-04-24 21:02 52.99223 9.77799 8149 ft 271 kts 19°
2026-04-24 21:02 53.00953 9.79012 8148 ft 270 kts 19°
2026-04-24 21:02 53.02684 9.80227 8144 ft 271 kts 19°
2026-04-24 21:03 53.04424 9.81450 8152 ft 271 kts 19°
2026-04-24 21:03 53.06154 9.82665 8148 ft 270 kts 19°
2026-04-24 21:03 53.07890 9.83887 8151 ft 270 kts 19°
2026-04-24 21:03 53.09617 9.85103 8153 ft 270 kts 19°
2026-04-24 21:04 53.11350 9.86321 8146 ft 270 kts 19°
2026-04-24 21:04 53.13084 9.87541 8147 ft 270 kts 19°
2026-04-24 21:04 53.14813 9.88763 8147 ft 270 kts 19°
2026-04-24 21:04 53.16542 9.89984 8148 ft 270 kts 19°
2026-04-24 21:05 53.18270 9.91196 8146 ft 270 kts 18°
2026-04-24 21:05 53.20010 9.92411 8145 ft 270 kts 18°
2026-04-24 21:05 53.21738 9.93623 8143 ft 270 kts 18°
2026-04-24 21:05 53.23471 9.94845 8146 ft 270 kts 18°
2026-04-24 21:06 53.25201 9.96069 8143 ft 270 kts 18°
2026-04-24 21:06 53.26931 9.97297 8143 ft 270 kts 18°
2026-04-24 21:06 53.28659 9.98525 8143 ft 270 kts 18°
2026-04-24 21:06 53.30359 9.99734 8143 ft 270 kts 18°
2026-04-24 21:07 53.32086 10.00963 8143 ft 269 kts 18°
2026-04-24 21:07 53.33811 10.02193 8145 ft 269 kts 18°
2026-04-24 21:07 53.35555 10.03437 8145 ft 269 kts 18°
2026-04-24 21:07 53.37260 10.04654 8142 ft 270 kts 18°
2026-04-24 21:08 53.38981 10.05884 8145 ft 270 kts 18°
2026-04-24 21:08 53.40704 10.07117 8147 ft 269 kts 18°
2026-04-24 21:08 53.42439 10.08358 7909 ft 271 kts 18°
2026-04-24 21:08 53.44165 10.09596 7786 ft 270 kts 18°
2026-04-24 21:09 53.45886 10.10830 7543 ft 268 kts 18°
2026-04-24 21:09 53.47594 10.12057 7280 ft 267 kts 19°
2026-04-24 21:09 53.49291 10.13287 7067 ft 266 kts 20°
2026-04-24 21:09 53.50900 10.14892 6833 ft 270 kts 31°
2026-04-24 21:10 53.52391 10.16824 6594 ft 271 kts 33°
2026-04-24 21:10 53.53738 10.18633 6363 ft 270 kts 33°
2026-04-24 21:10 53.55198 10.20603 6121 ft 268 kts 34°
2026-04-24 21:10 53.56652 10.22570 5861 ft 268 kts 34°
2026-04-24 21:11 53.58097 10.24530 5581 ft 267 kts 34°
2026-04-24 21:11 53.59541 10.26489 5185 ft 266 kts 34°
2026-04-24 21:11 53.60973 10.28438 4819 ft 264 kts 34°
2026-04-24 21:11 53.62396 10.30382 4450 ft 261 kts 34°
2026-04-24 21:12 53.63798 10.32294 4086 ft 258 kts 34°
2026-04-24 21:12 53.65256 10.34020 3679 ft 252 kts 21°
2026-04-24 21:12 53.66910 10.34614 3346 ft 241 kts 355°
2026-04-24 21:12 53.68542 10.34177 3051 ft 234 kts 346°
2026-04-24 21:13 53.70107 10.33507 2986 ft 227 kts 345°
2026-04-24 21:13 53.71581 10.32855 2987 ft 211 kts 344°
2026-04-24 21:13 53.72957 10.32245 2994 ft 204 kts 343°
2026-04-24 21:13 53.74199 10.31149 2980 ft 205 kts 317°
2026-04-24 21:14 53.74905 10.29047 2982 ft 212 kts 287°
2026-04-24 21:14 53.74908 10.26530 2986 ft 219 kts 268°
2026-04-24 21:14 53.74634 10.23978 2986 ft 222 kts 265°
2026-04-24 21:14 53.74156 10.21516 2980 ft 218 kts 247°
2026-04-24 21:15 53.73270 10.19515 2995 ft 207 kts 235°
2026-04-24 21:15 53.72330 10.17737 2883 ft 198 kts 235°
2026-04-24 21:15 53.71473 10.15981 2612 ft 193 kts 237°
2026-04-24 21:15 53.70627 10.14230 2325 ft 191 kts 237°
2026-04-24 21:16 53.69789 10.12530 2060 ft 185 kts 237°
2026-04-24 21:16 53.68994 10.10913 1808 ft 173 kts 238°
2026-04-24 21:16 53.68257 10.09407 1563 ft 160 kts 238°
2026-04-24 21:16 53.67589 10.08053 1359 ft 146 kts 238°
2026-04-24 21:17 53.66945 10.06777 1146 ft 136 kts 237°
2026-04-24 21:17 53.66360 10.05584 878 ft 128 kts 238°
2026-04-24 21:17 53.65808 10.04427 747 ft 128 kts 236°
2026-04-24 21:17 53.65427 10.03663 643 ft 129 kts 236°
2026-04-24 21:18 53.64670 10.02107 408 ft 127 kts 234°
2026-04-24 21:18 53.64090 10.00963 246 ft 128 kts 234°
2026-04-24 21:18 53.63528 9.99829 100 ft 124 kts 234°
2026-04-24 21:18 53.63017 9.98776 51 ft 103 kts 230°
2026-04-24 21:19 53.62723 9.98187 48 ft 31 kts 230°
2026-04-24 21:19 53.62590 9.97919 47 ft 29 kts 230°
2026-04-24 21:19 53.62507 9.97787 47 ft 13 kts 200°
2026-04-24 21:19 53.62467 9.97778 47 ft 1 kts 174°
2026-04-24 21:20 53.62428 9.97877 51 ft 5 kts 110°
2026-04-24 21:20 53.62427 9.97918 52 ft 3 kts 88°
2026-04-24 21:20 53.62433 9.97972 53 ft 9 kts 76°
2026-04-24 21:21 53.62476 9.98114 51 ft 18 kts 54°
2026-04-24 21:21 53.62556 9.98275 53 ft 19 kts 51°
2026-04-24 21:21 53.62630 9.98427 53 ft 15 kts 51°
2026-04-24 21:21 53.62703 9.98579 53 ft 18 kts 50°
2026-04-24 21:22 53.62791 9.98756 53 ft 21 kts 49°
2026-04-24 21:22 53.62886 9.98944 53 ft 22 kts 49°
2026-04-24 21:22 53.62990 9.99158 53 ft 24 kts 52°
2026-04-24 21:22 53.63061 9.99312 53 ft 26 kts 54°
2026-04-24 21:23 53.63193 9.99616 51 ft 17 kts 50°
2026-04-24 21:23 53.63261 9.99737 48 ft 14 kts 45°
2026-04-24 21:23 53.63324 9.99853 50 ft 14 kts 49°
2026-04-24 21:23 53.63381 9.99967 51 ft 13 kts 48°
2026-04-24 21:24 53.63424 10.00065 50 ft 6 kts 63°
2026-04-24 21:24 53.63430 10.00146 54 ft 8 kts 98°
2026-04-24 21:24 53.63413 10.00191 48 ft 1 kts 146°
2026-04-24 21:24 53.63391 10.00210 49 ft 5 kts 156°
2026-04-24 21:25 53.63388 10.00212 48 ft 0 kts 157°
2026-04-24 21:26 53.63376 10.00213 51 ft 3 kts 178°
2026-04-24 21:26 53.63345 10.00207 53 ft 6 kts 187°
2026-04-24 21:26 53.63316 10.00202 51 ft 1 kts 184°
2026-04-24 21:26 53.63293 10.00203 50 ft 5 kts 176°
2026-04-24 21:27 53.63278 10.00212 48 ft 0 kts 156°
2026-04-24 21:27 53.63272 10.00224 50 ft 0 kts 123°
2026-04-24 21:27 53.63275 10.00299 53 ft 8 kts 82°
2026-04-24 21:27 53.63277 10.00329 53 ft 1 kts 84°
2026-04-24 21:28 53.63279 10.00356 54 ft 2 kts 84°
2026-04-24 21:28 53.63279 10.00357 54 ft 0 kts 84°